Weather History for Langley AFB, VA

Change the Weather History Date:

Wednesday, January 1, 2014

  Actual Average Record
Temperature  
Mean Temperature 41 °F -  
Max Temperature 51 °F 50 °F 95 °F (2006)
Min Temperature 31 °F 35 °F 19 °F (1977)
Degree Days  
Heating Degree Days 24    
Moisture  
Dew Point 34 °F    
Average Humidity 81    
Maximum Humidity 100    
Minimum Humidity 57    
Precipitation  
Precipitation 0.00 in - - ()
Sea Level Pressure  
Sea Level Pressure 30.34 in    
Wind  
Wind Speed 6 mph (ESE)    
Max Wind Speed 10 mph    
Max Gust Speed -    
Visibility 10 miles    
Events      
Averages and records for this station are not official NWS values.
T = Trace of Precipitation, MM = Missing Value Source: NWS Daily Summary

Daily Weather History Graph

Daily Weather History Graph

Search for Another Location

Airport:

Trip Planner

Search our weather history database for the weather conditions in past years. The results will help you decide how hot, cold, wet, or windy it might be!

Date:

Astronomy

Jan. 01, 2014 Rise Set
Actual Time 7:19 AM EST 4:59 PM EST
Civil Twilight 6:50 AM EST 5:28 PM EST
Nautical Twilight 6:17 AM EST 6:00 PM EST
Astronomical Twilight 5:45 AM EST 6:32 PM EST
Moon 7:08 AM EST (1/1) 5:39 PM EST (1/1)
Length of Visible Light 10h 38m
Length of Day
9h 40m
New Moon, 0% of the Moon is Illuminated
Jan 1
New Moon
Jan 7
First Quarter
Jan 15
Full
Jan 24
Last Quarter
Jan 30
New

Hourly Weather History & Observations

Time (EST) Temp. Windchill Dew Point Humidity Pressure Visibility Wind Dir Wind Speed Gust Speed Precip Events Conditions
12:58 AM 31.5 °F - 28.0 °F 87% 30.38 in 10.0 mi Variable 1.2 mph - N/A   Clear
1:58 AM 33.8 °F 25.8 °F 29.5 °F 84% 30.39 in 10.0 mi NE 10.4 mph - N/A   Clear
2:58 AM 32.5 °F 24.2 °F 28.8 °F 86% 30.40 in 10.0 mi ENE 10.4 mph - N/A   Clear
3:58 AM 34.7 °F 28.1 °F 27.1 °F 74% 30.40 in 10.0 mi ENE 8.1 mph - N/A   Clear
4:58 AM 32.7 °F 26.4 °F 25.9 °F 76% 30.41 in 10.0 mi East 6.9 mph - N/A   Clear
5:58 AM 33.1 °F 26.1 °F 28.2 °F 82% 30.42 in 10.0 mi ENE 8.1 mph - N/A   Clear
6:58 AM 33.8 °F 26.4 °F 29.5 °F 84% 30.44 in 10.0 mi ENE 9.2 mph - N/A   Clear
7:58 AM 34.5 °F 26.7 °F 31.1 °F 87% 30.44 in 10.0 mi NE 10.4 mph - N/A   Clear
8:58 AM 37.0 °F 34.5 °F 32.5 °F 84% 30.45 in 10.0 mi East 3.5 mph - N/A   Clear
9:58 AM 42.3 °F 37.9 °F 34.2 °F 73% 30.46 in 10.0 mi ESE 6.9 mph - N/A   Clear
10:58 AM 45.7 °F 40.6 °F 35.1 °F 66% 30.45 in 10.0 mi SE 10.4 mph - N/A   Clear
11:58 AM 48.2 °F - 36.1 °F 63% 30.40 in 10.0 mi SE 9.2 mph - N/A   Clear
12:58 PM 49.6 °F - 35.6 °F 59% 30.37 in 10.0 mi SE 6.9 mph - N/A   Clear
1:58 PM 50.5 °F - 36.0 °F 57% 30.35 in 10.0 mi South 6.9 mph - N/A   Clear
2:58 PM 51.6 °F - 36.9 °F 57% 30.33 in 10.0 mi South 5.8 mph - N/A   Clear
3:58 PM 49.8 °F - 37.2 °F 62% 30.31 in 10.0 mi ESE 4.6 mph - N/A   Clear
4:58 PM 46.9 °F - 37.2 °F 69% 30.29 in 10.0 mi SE 2.3 mph - N/A   Clear
5:58 PM 41.2 °F - 36.7 °F 84% 30.28 in 10.0 mi SSE 1.2 mph - N/A   Clear
6:58 PM 37.2 °F - 36.9 °F 99% 30.28 in 10.0 mi South 2.3 mph - N/A   Clear
7:18 PM 39.2 °F - 37.4 °F 93% 30.25 in 9.0 mi South 2.3 mph - N/A   Clear
7:28 PM 37.4 °F - 37.4 °F 100% 30.25 in 10.0 mi South 2.3 mph - N/A   Clear
7:58 PM 36.7 °F - 36.3 °F 99% 30.26 in 10.0 mi Calm Calm - N/A   Clear
8:58 PM 36.1 °F - 36.0 °F 99% 30.25 in 10.0 mi Calm Calm - N/A   Clear
9:58 PM 34.7 °F - 34.5 °F 99% 30.23 in 10.0 mi South 2.3 mph - N/A   Clear
10:58 PM 36.0 °F - 35.4 °F 98% 30.20 in 10.0 mi Calm Calm - N/A   Clear
11:58 PM 34.9 °F - 34.2 °F 97% 30.19 in 10.0 mi Calm Calm - N/A   Partly Cloudy